SCP
1 1 1 1 1 1 0 0 0 0 0 0 0 0 1 1 1 1 1 2 3 3 5 6 6 5 4 4 4 4 4 4 3 3 2 2 2 2 1 1 1 1 1 0 0 0 0 0 0
1 1 1 1 1 1 0 0 0 0 0 0 0 1 1 1 1 1 1 2 3 4 5 6 6 5 4 4 4 4 4 4 4 3 3 2 2 2 1 1 1 1 1 1 1 1 0 0 0
1 1 1 1 1 0 0 0 0 0 0 0 1 1 2 2 2 2 2 3 4 4 5 5 5 5 4 4 4 4 4 4 4 3 3 3 2 2 2 1 1 1 1 1 1 1 0 0 0
1 1 1 1 1 0 0 0 0 0 0 0 1 1 2 3 3 3 3 4 4 5 5 5 5 5 4 4 4 4 4 4 4 3 3 3 2 2 2 1 1 1 1 1 1 1 0 0 0
1 1 1 1 0 0 0 0 0 0 0 1 1 2 3 4 3 3 4 4 5 6 6 5 5 5 4 4 4 4 4 4 3 3 3 3 2 2 2 2 1 1 1 1 1 1 0 0 0
1 1 1 1 0 0 0 0 0 0 0 1 2 4 4 4 4 4 4 5 6 7 6 6 5 5 4 4 4 4 4 4 4 3 3 3 2 2 2 2 2 2 1 1 1 1 1 1 1
1 1 1 1 0 0 0 0 0 0 0 1 2 4 5 4 4 5 5 6 7 7 7 6 6 5 5 4 4 4 4 4 4 3 3 3 3 2 2 2 2 2 1 1 1 1 1 1 1
1 1 1 1 0 0 0 0 0 0 0 1 2 4 5 5 5 5 5 6 7 7 6 6 6 6 5 4 4 4 4 4 3 3 3 3 3 3 2 2 2 2 2 1 1 1 1 1 1
1 1 1 1 0 0 0 0 0 1 1 2 2 4 5 5 5 5 5 6 6 6 6 6 6 5 5 4 4 4 4 4 3 3 3 3 3 3 2 2 2 2 2 2 1 1 1 0 0
1 0 0 0 0 0 0 0 0 1 2 3 3 4 5 5 4 5 5 5 5 5 6 6 6 5 4 4 4 4 4 4 4 3 3 3 3 3 3 2 2 2 2 2 1 1 0 0 0
0 0 0 0 0 0 0 0 0 1 2 2 3 3 4 4 4 4 5 5 4 4 5 5 5 4 4 4 4 4 4 4 4 3 3 3 3 3 3 3 3 2 2 1 1 0 0 0 0
0 0 0 0 0 0 0 0 0 1 1 2 3 3 3 3 3 4 4 4 4 4 5 5 4 4 4 5 5 4 4 4 4 4 3 2 3 3 3 3 2 2 1 1 0 0 0 0 0
0 0 0 0 0 0 0 0 0 1 1 2 3 3 3 3 3 3 4 4 4 4 4 4 4 4 4 4 4 4 4 4 4 4 3 2 2 2 2 2 2 1 1 1 0 0 0 0 0
0 0 0 0 0 0 0 0 0 1 2 2 3 3 3 3 3 3 3 3 4 4 4 4 4 4 4 4 4 4 4 4 4 4 3 3 2 2 2 2 1 1 1 1 1 0 0 0 0
0 0 0 0 0 0 0 0 0 1 2 2 2 3 3 3 2 2 2 2 2 3 3 3 3 3 3 3 3 3 4 4 4 4 4 3 2 2 2 2 2 2 1 1 1 1 0 0 0
0 0 0 0 0 0 0 0 1 1 2 2 2 2 3 3 2 2 2 2 2 2 2 2 2 2 2 2 2 2 3 4 4 4 4 3 3 2 2 2 2 2 2 1 1 1 1 0 0
0 0 0 0 0 0 0 0 1 1 1 1 1 2 2 2 2 2 2 2 2 2 2 2 2 2 2 1 1 1 2 3 4 4 4 3 3 2 2 2 2 2 2 1 1 1 1 1 0
0 0 0 0 0 0 0 0 1 1 1 1 1 1 1 2 2 2 2 2 2 2 2 2 2 1 1 1 1 1 1 2 4 4 3 3 2 2 2 2 2 2 2 2 1 1 1 1 0
0 0 0 0 0 0 0 0 0 0 0 0 0 1 1 1 1 2 2 2 2 1 1 1 1 1 1 1 1 1 0 1 3 3 2 1 2 2 2 2 2 2 2 1 1 1 1 0 0
0 0 0 0 0 0 0 0 0 0 0 0 0 0 1 1 1 1 2 2 2 1 1 1 1 1 1 0 0 0 0 1 2 2 1 1 1 2 2 2 1 1 1 1 1 1 1 0 0
0 0 0 0 0 0 0 0 0 0 0 0 0 0 1 1 1 1 2 2 1 1 1 1 1 1 1 0 0 0 0 0 1 1 1 1 1 1 1 1 1 1 1 0 0 0 0 0 0
0 0 0 0 0 0 0 0 0 0 0 0 0 0 1 1 1 1 1 1 1 1 1 1 1 1 1 1 0 0 0 0 0 1 1 0 1 1 1 1 1 1 0 0 0 0 0 0 0
0 0 0 0 0 0 0 0 0 0 0 0 0 0 0 1 1 1 1 1 1 1 1 1 1 1 1 1 1 1 0 0 0 0 0 0 0 1 1 1 1 0 0 0 0 0 0 0 0
0 0 0 0 0 0 0 0 0 0 0 0 0 0 0 0 1 1 1 1 1 1 1 1 1 1 1 1 1 1 1 1 0 0 0 0 0 0 0 1 0 0 0 0 0 0 0 0 0
0 0 0 0 0 0 0 0 0 0 0 0 0 0 0 0 1 1 1 1 1 1 1 1 1 1 1 1 1 1 1 1 1 0 0 0 0 0 0 0 0 0 0 0 0 0 0 0 0
0 0 0 0 0 0 0 0 0 0 0 0 0 0 0 0 0 1 1 1 1 1 1 1 1 1 1 1 1 1 1 1 1 1 1 1 1 0 0 0 0 0 0 0 0 0 0 0 0
0 0 0 0 0 0 0 0 0 0 0 0 0 0 0 0 0 0 0 0 0 0 0 0 0 0 1 1 1 1 1 1 1 1 1 1 1 1 0 0 0 0 0 0 0 0 0 0 0
0 0 0 0 0 0 0 0 0 0 0 0 0 0 0 0 0 0 0 0 0 0 0 0 0 0 0 0 0 1 1 1 1 1 1 1 0 0 0 0 0 0 0 0 0 0 0 0 0
0 0 0 0 0 0 0 0 0 0 0 0 0 0 0 0 0 0 0 0 0 0 0 0 0 0 0 0 0 0 0 0 0 0 1 0 0 0 0 0 0 0 0 0 0 0 0 0 0
0 0 0 0 0 0 0 0 0 0 0 0 0 0 0 0 0 0 0 0 0 0 0 0 0 0 0 0 0 0 0 0 0 0 0 0 0 0 0 0 0 0 0 0 0 0 0 0 0
Wind_Speed
4 2 2 3 5 3 4 5 3 2 2 1 1 3 5 5 4 3 1 3 4 5 5 8 10 10 10 10 11 11 11 12 11 12 12 12 11 11 11 11 10 10 10 9 9 9 10 10 10
1 1 4 4 4 3 5 4 4 4 3 1 2 3 3 1 1 2 1 2 4 5 4 6 10 10 11 11 11 11 11 11 11 11 11 11 11 11 10 10 10 10 9 9 9 9 9 9 9
1 2 3 3 4 7 5 4 5 2 0 1 2 2 2 1 1 1 0 3 5 4 4 6 10 10 10 10 10 11 11 11 11 11 10 10 11 10 10 10 10 9 9 9 8 8 9 9 8
2 3 3 2 6 6 4 2 2 0 2 2 2 2 1 1 1 1 2 4 6 4 3 5 10 9 10 10 10 10 10 11 10 10 10 10 10 10 10 9 9 9 9 8 8 8 8 8 8
3 3 2 3 6 4 2 1 1 1 0 1 2 2 1 3 3 4 4 4 6 4 3 4 8 9 9 9 10 9 10 10 10 10 10 10 10 10 9 9 9 9 8 8 8 8 8 7 7
2 2 3 6 6 3 2 1 1 1 1 1 2 2 0 2 4 4 4 4 4 5 4 4 7 8 8 8 9 9 9 9 9 9 9 9 10 9 9 9 8 8 8 8 7 7 8 7 7
3 3 4 5 4 3 2 0 1 1 1 1 2 3 0 1 2 3 4 4 4 5 5 4 4 5 6 7 8 8 9 8 8 9 9 9 9 9 9 8 8 7 7 7 7 7 7 7 7
3 3 2 3 3 3 1 0 0 2 2 0 2 4 3 2 1 3 4 5 5 5 5 4 4 4 4 4 7 8 8 8 8 8 8 8 8 8 8 7 7 7 7 7 7 7 7 8 7
2 2 4 5 4 3 1 0 1 1 3 1 1 1 2 5 5 5 5 4 4 5 4 4 4 4 4 4 5 5 6 7 7 6 7 7 3 3 4 5 7 7 7 7 7 7 8 8 7
3 4 6 3 3 2 1 1 1 2 1 1 2 2 3 6 6 6 5 4 3 3 3 3 4 4 3 3 3 2 3 3 3 3 3 3 3 3 4 5 6 6 7 6 7 7 7 6 3
2 4 3 2 2 1 0 0 0 3 1 3 3 4 5 6 6 6 5 4 3 2 2 3 3 3 3 2 2 2 2 2 2 3 3 3 3 2 3 2 3 3 4 3 4 4 3 2 2
1 2 2 2 1 0 1 0 1 0 3 2 4 7 8 6 6 6 5 3 2 3 2 2 2 3 3 3 2 2 2 2 2 2 3 3 2 2 2 1 2 2 1 2 2 2 2 2 2
2 1 1 1 2 1 1 1 1 2 2 2 5 6 6 6 4 3 3 3 2 3 2 2 2 3 2 3 1 2 1 2 2 2 2 2 2 2 2 1 1 1 1 1 2 2 2 2 2
1 1 2 2 1 1 1 2 1 2 1 4 5 5 4 4 4 3 3 3 2 2 2 2 2 2 2 2 1 1 1 2 2 2 2 2 2 2 2 2 1 1 1 1 1 1 1 1 1
1 1 3 2 1 1 1 3 1 2 3 4 4 4 3 2 3 2 2 2 2 2 2 2 2 2 2 2 1 1 1 2 2 2 2 2 2 2 2 1 1 1 1 2 2 2 2 2 2
1 1 2 3 1 1 2 4 2 1 4 3 2 3 2 1 2 1 1 1 2 2 2 2 2 2 2 2 1 1 1 2 2 1 2 2 2 2 2 2 1 1 2 2 2 1 2 2 2
2 1 2 3 1 1 2 3 2 0 3 3 2 2 2 1 1 2 2 1 1 2 2 2 2 3 2 2 2 2 2 2 2 2 2 2 2 2 2 2 1 2 2 2 1 1 1 1 1
2 1 2 2 2 1 1 2 2 0 2 3 2 2 2 1 1 0 1 2 2 2 2 3 3 3 3 3 2 2 3 2 2 2 2 2 1 2 2 2 1 2 2 1 1 1 1 1 1
2 1 2 3 2 0 2 2 2 1 1 2 1 2 1 1 0 1 2 2 2 3 3 2 3 2 2 2 2 1 1 1 1 1 2 2 2 2 2 2 2 1 1 1 2 1 2 2 1
1 1 2 2 2 0 1 2 2 1 2 3 3 3 3 1 1 1 1 2 2 2 2 2 2 2 1 1 1 1 1 0 0 1 1 1 2 2 2 1 1 2 1 2 2 2 2 1 1
2 3 2 1 3 2 1 2 1 1 1 1 1 1 2 3 2 1 1 0 1 1 1 1 1 1 2 2 2 2 2 2 1 2 1 1 1 1 2 2 1 2 2 2 1 2 2 1 0
2 1 1 1 1 1 1 2 4 2 2 2 2 2 2 2 2 2 1 1 0 1 1 1 1 2 2 2 2 3 2 1 1 1 0 0 1 1 2 2 2 2 1 2 1 1 1 2 1
1 2 0 0 1 1 1 1 5 0 3 5 4 4 4 3 3 3 2 2 1 0 1 1 2 2 2 2 2 2 2 1 1 1 1 1 1 1 2 1 1 1 1 1 1 1 1 2 2
1 3 3 3 3 1 2 3 5 3 5 4 3 4 4 3 2 2 1 1 1 1 2 2 2 2 1 2 2 2 2 2 2 2 1 0 0 1 2 1 1 1 0 1 1 2 2 1 1
4 3 3 3 2 4 1 2 7 4 3 3 3 3 3 2 2 1 1 1 1 1 1 1 1 1 1 1 1 1 1 2 2 1 1 0 0 0 1 1 1 0 0 1 1 1 2 2 2
1 2 3 2 3 3 1 4 6 2 2 1 1 0 1 1 1 1 1 1 1 1 0 1 1 0 0 0 0 1 1 1 0 1 1 1 1 1 0 1 1 1 0 0 0 1 1 1 2
1 1 1 2 1 1 4 5 6 3 3 3 2 2 2 1 0 0 1 1 1 0 0 1 1 0 0 0 0 0 0 0 0 1 0 1 0 0 0 0 0 1 1 1 0 0 1 1 1
2 3 3 2 1 2 4 3 4 4 3 3 3 2 2 2 2 2 1 1 1 0 1 0 0 0 0 0 0 0 0 0 0 0 0 0 0 0 0 0 0 0 1 0 0 0 1 1 1
2 2 2 2 2 2 2 5 3 3 2 2 2 2 1 2 1 2 2 1 1 1 1 1 1 1 1 0 0 0 0 0 0 0 1 1 0 0 1 0 0 0 0 0 0 1 1 1 1
2 2 3 2 1 2 2 6 2 1 1 1 2 2 1 1 1 1 1 2 2 2 2 1 1 1 1 1 0 0 1 0 0 0 1 1 1 1 1 1 1 1 1 1 1 1 1 1 1
Wind_Direction
328 20 62 59 63 70 226 235 211 236 226 230 158 137 146 151 160 186 356 93 111 131 142 145 145 141 136 131 128 124 121 119 117 116 114 113 111 107 105 101 96 93 90 88 87 84 84 83 81
12 52 58 68 117 191 241 229 208 220 206 122 51 79 96 109 45 88 78 88 115 129 136 138 136 138 137 133 129 128 125 122 120 118 117 116 115 112 108 103 99 95 92 89 88 86 85 84 82
75 64 93 104 171 198 219 221 209 238 273 70 65 52 103 116 71 112 145 125 107 114 120 136 130 130 134 134 131 127 127 124 121 120 120 119 118 115 111 105 101 97 93 90 88 87 86 84 82
83 62 69 139 215 221 212 229 193 210 13 44 93 63 19 22 306 180 127 122 108 99 104 126 126 128 129 129 130 128 125 124 123 122 122 121 119 116 111 106 101 97 94 91 89 87 86 83 82
70 101 138 218 231 241 236 255 170 145 40 37 108 106 351 354 41 92 106 112 113 98 86 117 125 127 126 128 127 126 124 122 124 124 122 120 116 112 108 104 99 96 93 91 90 88 87 85 82
88 106 164 215 231 255 259 262 121 86 72 71 103 111 250 36 52 81 96 100 106 105 86 95 114 121 122 123 125 121 119 121 124 124 122 119 117 114 110 106 102 99 96 93 90 88 86 82 80
142 146 198 205 220 240 246 283 143 141 131 212 154 120 251 12 40 83 96 93 90 90 84 72 86 105 110 112 112 115 114 114 117 121 120 116 114 114 112 107 104 100 96 91 89 87 83 80 79
142 131 197 210 204 232 255 334 181 157 201 199 117 138 189 217 109 94 97 97 90 77 74 69 66 76 91 97 101 101 108 110 109 112 113 110 108 110 108 104 102 101 95 90 86 85 82 77 75
114 137 211 212 195 228 268 230 342 50 108 46 5 206 196 146 133 109 96 89 79 70 64 70 68 65 74 89 94 96 99 103 102 102 104 103 101 103 102 98 99 99 92 87 85 82 78 72 66
132 194 219 216 199 202 264 227 189 106 62 20 354 360 107 139 139 128 121 124 113 91 68 69 76 75 69 87 86 82 84 93 97 97 103 103 101 97 94 91 93 91 84 80 78 77 74 64 52
165 202 218 248 237 211 239 317 158 140 205 212 191 166 148 146 144 139 137 139 144 130 90 70 73 80 81 82 93 83 84 82 88 100 104 102 94 94 87 90 83 76 74 66 64 60 54 56 58
175 262 247 254 276 307 211 241 41 141 238 220 163 153 151 153 156 155 149 142 127 113 94 78 68 71 75 86 99 107 105 98 97 109 112 114 113 104 108 105 93 81 74 71 64 63 54 55 59
215 250 289 308 17 22 51 333 158 310 315 77 112 128 147 156 156 150 137 127 119 116 98 87 83 75 72 83 91 114 124 124 122 118 121 121 124 129 125 120 108 95 85 85 75 66 60 56 51
197 235 290 321 324 315 78 320 66 294 18 93 117 133 148 151 145 130 121 120 119 118 113 100 100 87 80 79 82 122 133 126 120 119 124 123 122 125 123 127 119 101 93 91 94 87 75 61 59
112 21 320 307 284 258 71 339 293 268 113 113 130 135 127 115 120 134 151 144 139 136 114 104 105 87 87 83 85 87 125 122 117 116 117 115 115 126 120 117 120 115 96 88 80 65 65 64 58
47 56 289 300 331 316 115 258 285 141 127 140 151 138 134 111 105 85 69 84 103 111 108 105 93 88 84 78 77 75 80 105 104 97 98 98 101 108 114 110 111 115 107 103 103 89 72 58 53
45 166 237 298 339 49 136 233 275 119 137 157 170 153 141 111 51 37 37 47 95 114 115 96 88 93 83 72 72 76 64 74 78 88 90 84 90 99 104 111 115 113 109 105 106 96 99 90 58
211 196 225 248 292 71 180 233 288 240 156 169 173 148 144 156 230 3 41 28 53 78 93 89 81 84 82 77 65 66 57 57 62 66 80 92 91 99 107 106 96 101 99 94 95 105 78 97 85
174 168 256 258 264 128 200 222 273 239 164 168 162 157 180 225 312 59 58 48 54 58 66 74 71 76 87 85 85 84 60 37 60 47 58 80 82 92 109 121 123 115 117 129 123 119 97 56 51
168 194 275 304 346 126 178 258 272 223 195 185 189 196 196 210 24 65 60 46 54 75 80 80 73 68 81 90 113 107 108 56 84 51 38 53 80 91 96 102 138 134 112 86 90 105 104 65 54
304 210 219 276 348 23 74 307 255 273 177 155 196 198 205 192 195 201 126 72 61 75 111 105 89 68 49 55 82 76 64 34 26 28 7 357 45 90 100 103 102 116 121 130 114 121 118 127 46
295 279 193 259 76 320 80 259 265 252 276 263 249 237 238 220 209 204 191 189 208 216 91 93 90 79 64 77 90 105 106 115 278 260 294 354 47 52 69 104 110 119 129 134 151 119 134 136 159
280 349 354 125 124 7 27 184 275 326 265 264 251 242 240 228 214 211 206 201 209 108 96 85 77 72 75 79 92 108 98 81 17 20 62 47 37 56 51 75 103 103 124 149 154 153 146 160 170
33 32 40 52 76 272 222 174 273 233 237 262 255 243 231 221 221 223 208 120 74 61 69 71 75 59 57 82 83 93 109 89 67 26 26 52 23 41 34 36 61 92 125 176 180 178 174 183 180
44 65 36 12 13 257 178 192 253 257 242 226 240 244 225 201 192 185 151 123 93 82 81 80 89 51 36 81 96 105 131 134 136 178 230 166 36 354 337 8 2 35 316 185 162 169 182 188 196
300 116 144 191 223 286 312 232 258 287 296 280 282 312 60 138 152 168 185 175 152 133 103 99 139 297 351 78 112 127 114 142 176 214 193 203 219 228 287 2 4 11 38 56 137 154 186 185 201
96 98 146 123 79 289 269 285 302 355 1 13 26 35 18 353 11 41 50 57 76 107 199 202 191 255 275 263 323 87 93 121 219 255 202 200 235 89 73 73 38 17 29 47 72 167 226 212 216
90 133 94 105 137 278 289 279 274 307 318 341 353 344 334 357 11 14 30 38 13 348 317 11 140 207 282 330 244 343 255 246 241 226 188 205 249 109 123 99 61 42 35 34 161 295 286 232 248
53 66 85 106 156 174 260 272 252 256 260 251 271 291 318 339 349 0 354 359 22 26 31 23 25 24 6 339 291 325 289 313 85 200 217 204 180 169 189 215 197 207 273 230 231 283 313 282 275
151 159 146 153 230 191 213 269 302 285 297 271 278 296 337 352 6 18 18 22 24 14 7 5 6 1 329 315 353 349 342 23 54 274 245 192 180 222 221 199 209 252 289 263 237 258 290 281 285